sat.trackr.live / text

‹ back to catalog

STARLINK-34854

NORAD 65337 · 2025-189Q

PAYLOAD ACTIVE UNKNOWN

§ Identity

Operator
Country
US
Launch date
2025-08-27
Launch site
AFETR
Launch vehicle
Mass (kg)
RCS (m²)

Purposes: comms

External: N2YO · Heavens-Above · Gunter

§ Orbital elements

Epoch: 2026-05-25T04:56:22.377984Z

Period
94.10 min
Inclination
53.1575°
Eccentricity
0.0001021
Mean motion
15.30209198 rev/d
Perigee alt
474.5 km
Apogee alt
475.9 km
Semi-major
6,853.3 km
B*
5.1795e-4
RAAN
211.1980°
Arg perigee
82.7111°
Mean anomaly
277.4006°
Rev number
4,276

§ Raw data

STARLINK-348541 65337U 25189Q   26145.20581456  .00015016  00000+0  51795-3 0  99902 65337  53.1575 211.1980 0001021  82.7111 277.4006 15.30209198 42761

JSON: /api/v1/satellites/65337 · /tle

For live sub-satellite position, see the globe view (requires WebGL).

§ Visibility from observer

Set your observer location to see the next 7 days of passes ≥ 10°. The values pass through the URL so the page stays shareable.

No JS? Fill the form by hand. The geolocation button needs JavaScript.